Wind_Speed
13 13 12 12 12 12 12 11 11 11 12 12 11 9 9 10 12 15 15 12 12 11 14 16 17 14 12 18 37 33 26 16 18 17 18 16 10 7 13 17 20 20 9 10 16
13 12 11 12 12 12 13 13 13 13 13 12 11 10 10 10 11 10 12 14 9 13 13 15 13 11 11 14 38 34 32 22 20 22 21 15 12 12 12 17 19 12 8 6 5
11 11 11 12 12 13 13 14 14 15 14 13 11 12 11 11 10 11 13 10 11 12 11 12 11 11 11 14 37 37 32 27 24 28 28 19 12 12 17 19 18 16 10 10 12
10 10 10 11 12 13 14 15 15 16 15 14 13 13 13 13 12 12 12 12 12 13 13 11 12 12 13 13 34 41 33 30 29 28 31 30 24 15 19 21 24 21 13 16 13
9 9 9 10 11 11 13 14 16 17 18 17 15 15 15 15 13 15 14 12 12 13 12 12 14 15 15 17 31 47 34 35 35 34 31 32 27 23 23 23 22 24 24 11 9
9 9 10 10 10 10 10 11 13 15 17 18 17 16 18 18 17 16 16 15 14 13 13 15 18 18 19 20 26 49 45 42 41 36 34 32 30 27 25 23 24 27 30 19 2
9 10 10 11 11 12 12 12 11 12 14 16 18 19 19 14 18 18 18 17 16 15 17 19 17 17 18 22 25 47 51 48 42 40 40 34 34 28 24 29 31 33 33 27 17
8 9 10 11 11 13 12 13 14 13 11 14 16 19 18 17 23 19 20 18 18 18 20 19 17 17 17 18 19 38 46 46 44 43 42 41 29 23 31 37 41 38 31 21 13
7 8 9 10 11 11 12 13 13 14 14 13 16 17 16 19 22 18 22 21 20 20 21 20 18 19 18 18 19 22 28 46 44 44 46 43 35 21 31 36 38 31 27 17 11
6 7 8 8 9 9 11 12 12 11 13 15 15 18 18 18 20 21 21 22 23 23 23 22 20 20 21 22 19 19 21 23 29 42 47 50 39 29 24 33 30 23 19 16 15
5 5 5 6 7 8 9 9 9 9 10 10 13 17 19 20 22 24 25 25 25 25 26 26 23 19 22 27 26 28 25 25 24 34 34 38 36 27 24 26 26 20 17 16 17
5 6 6 6 6 6 5 5 6 9 12 9 11 15 10 14 20 23 25 26 26 26 27 26 20 26 30 30 29 31 30 27 29 33 38 38 39 33 28 30 25 21 20 18 19
6 8 8 9 10 9 9 8 6 7 10 9 13 15 11 11 13 18 21 24 26 27 29 28 25 31 32 33 33 32 33 27 33 36 39 38 37 30 27 29 27 22 21 23 21
6 8 9 10 11 12 12 11 11 12 13 16 16 15 16 15 19 19 20 20 22 25 29 25 26 29 32 32 34 35 32 32 36 45 44 38 40 36 32 35 30 25 28 25 22
13 12 13 13 14 14 14 14 15 16 17 19 18 17 17 20 22 23 22 21 22 25 28 20 27 32 34 26 36 32 37 40 40 45 50 47 45 36 37 37 33 27 23 23 23
16 16 16 16 16 15 15 16 17 18 20 20 19 20 19 22 25 24 23 25 28 30 32 22 27 32 31 30 33 31 37 42 44 46 50 48 48 44 38 36 37 34 32 29 29
16 16 16 15 14 15 15 17 20 20 20 21 20 20 20 20 21 21 23 29 32 35 35 33 32 33 36 36 35 36 34 39 46 48 51 45 50 51 39 41 40 38 37 39 41
15 14 13 13 14 15 17 19 20 17 18 18 18 19 20 22 23 24 27 30 34 37 35 37 37 35 35 40 38 38 40 45 49 47 48 49 51 47 45 44 46 47 47 48 48
14 13 14 14 14 16 17 16 16 16 17 19 20 21 22 23 26 29 29 32 35 37 38 41 40 30 38 40 42 40 46 44 49 51 53 54 51 47 41 48 55 57 56 54 57
14 14 14 14 15 17 18 15 15 15 15 14 18 20 22 23 28 31 35 37 39 40 41 43 45 36 32 37 38 40 39 47 52 56 57 59 54 50 45 42 43 49 53 51 52
12 14 12 14 15 17 19 16 15 15 16 17 19 21 22 24 27 29 34 37 37 40 43 45 49 44 40 38 37 37 43 43 50 57 62 62 60 54 51 45 40 39 44 44 45
10 12 13 14 15 16 19 18 18 20 22 25 27 30 31 32 35 37 38 41 42 43 44 48 51 56 48 42 41 43 46 48 53 56 59 61 62 56 55 49 47 41 44 44 45
11 12 15 15 16 17 20 22 23 24 27 30 33 35 38 40 43 45 47 49 50 52 53 52 56 59 59 53 52 51 52 54 55 57 55 62 60 57 60 53 52 45 41 38 43
12 12 15 17 19 23 25 27 29 31 33 36 39 41 44 47 50 54 56 57 59 61 63 63 63 65 68 67 65 64 61 62 62 62 64 61 61 59 61 58 55 51 44 42 41
15 16 18 21 25 28 30 33 35 39 42 45 46 50 54 57 60 63 65 67 69 73 74 74 74 75 75 76 78 75 70 65 68 66 67 60 63 60 60 63 62 59 57 50 51
20 22 24 26 28 31 35 38 42 44 46 50 54 58 61 65 68 70 72 75 76 79 80 82 84 85 83 83 86 85 84 76 73 71 73 67 65 63 65 64 63 62 64 61 53
24 27 30 32 35 39 41 43 46 51 54 58 62 62 62 59 58 58 60 63 69 72 75 76 79 81 88 87 91 92 90 89 84 79 78 78 73 68 67 64 63 62 62 60 58
Wind_Direction
230 227 228 230 233 234 234 236 236 237 237 233 230 229 234 230 225 227 230 237 235 225 221 229 229 227 209 204 177 171 166 178 204 204 189 180 172 219 266 285 297 320 294 246 283
234 233 231 232 233 233 234 235 234 235 235 231 227 225 226 225 226 232 225 233 231 229 223 226 227 222 211 200 183 176 180 181 198 205 203 201 190 223 254 272 291 328 198 168 303
228 231 233 237 239 238 241 240 235 233 231 232 227 226 227 228 225 226 234 240 232 238 232 228 226 216 210 194 185 180 186 189 197 205 210 194 202 235 258 271 280 292 216 193 288
225 228 229 233 238 241 243 242 241 240 236 231 227 225 228 231 226 229 233 233 230 233 232 223 219 217 207 193 189 183 191 190 196 212 218 228 239 245 256 261 271 278 276 245 263
233 233 235 238 238 240 241 240 239 239 237 233 231 229 229 233 230 233 232 233 232 234 237 229 218 214 211 195 191 191 190 198 206 214 227 236 253 260 253 260 266 271 280 267 269
244 242 240 241 242 242 245 247 246 244 241 236 233 233 232 232 233 230 231 229 230 231 233 229 220 212 211 207 198 193 200 207 215 213 220 243 266 264 259 267 271 278 284 293 313
246 247 248 248 249 251 251 251 251 252 246 239 234 232 234 232 238 232 228 228 230 233 233 234 233 230 224 218 204 201 207 216 217 222 229 237 260 285 262 272 270 276 283 294 312
248 248 248 251 255 254 257 256 252 249 249 243 236 234 232 221 230 227 232 233 231 231 236 239 236 239 236 234 223 208 217 222 222 229 237 243 251 258 254 264 267 270 283 294 296
251 255 255 254 254 259 261 257 252 247 243 240 237 236 226 228 234 231 228 229 234 235 240 245 243 242 238 235 228 218 223 230 234 238 239 248 255 254 256 255 258 269 278 277 271
251 253 258 261 261 259 255 253 254 251 244 238 239 239 236 231 237 236 231 235 236 239 241 240 238 240 241 239 236 233 222 217 220 233 240 243 248 217 245 244 246 258 271 249 252
251 261 270 272 270 263 261 260 254 246 246 241 237 238 237 233 233 239 241 236 241 246 244 241 236 239 239 238 234 232 222 220 215 220 225 226 222 206 223 252 244 238 249 244 248
256 260 263 268 272 268 268 263 255 247 256 241 239 245 236 244 241 237 242 243 244 245 247 247 242 239 237 238 236 238 235 224 215 215 228 229 236 216 226 243 245 235 225 238 260
263 262 260 261 261 260 258 255 250 242 254 245 239 251 242 228 234 247 242 244 243 244 247 246 240 242 244 242 238 236 240 226 217 207 225 236 237 230 231 243 239 247 236 242 252
277 277 271 267 264 263 262 258 256 248 242 252 252 250 257 244 242 247 250 252 249 246 245 244 244 244 246 242 242 237 238 229 223 216 227 237 242 232 227 242 243 246 242 245 251
285 277 274 271 268 263 263 260 256 254 253 253 257 258 255 253 250 244 246 252 253 252 254 243 239 243 243 243 246 241 235 233 228 228 231 233 244 237 237 242 249 250 246 251 262
284 277 269 266 263 262 263 261 261 258 256 259 263 268 262 261 265 263 251 245 244 247 250 240 245 247 251 244 243 248 240 244 243 238 241 238 237 243 235 239 246 251 256 263 275
276 275 271 269 268 266 263 264 265 266 276 278 278 275 269 263 267 264 262 257 255 255 254 248 238 240 245 244 242 247 250 249 250 247 253 247 243 248 237 235 242 251 256 265 270
278 275 275 274 278 276 279 278 281 290 289 287 281 273 269 267 268 265 264 263 266 263 257 255 248 250 246 246 239 241 244 248 254 253 257 254 251 247 244 240 239 244 248 253 259
277 281 285 289 289 289 287 294 295 293 285 283 278 276 276 278 279 278 274 272 270 268 267 266 259 249 253 256 255 244 240 246 254 258 258 254 252 253 242 238 242 244 246 251 257
278 281 286 287 288 287 289 293 287 283 278 273 275 278 279 276 272 274 274 273 276 275 276 275 269 263 253 251 248 261 253 242 243 251 254 260 260 259 253 246 241 244 250 251 252
277 284 287 290 293 293 293 290 285 283 280 279 277 278 275 273 273 270 273 277 275 275 275 277 277 269 266 257 253 247 254 254 250 247 252 259 263 266 266 262 249 249 252 252 249
274 285 291 292 292 291 290 290 288 290 290 289 288 287 286 283 280 277 274 273 274 272 269 271 274 276 271 268 263 256 251 251 249 250 252 257 264 264 266 267 266 260 251 254 255
282 290 298 300 303 300 298 297 295 294 295 295 295 293 290 287 283 281 279 277 274 272 269 267 267 272 272 269 261 257 256 252 251 252 256 254 259 261 265 265 266 268 262 259 255
281 285 295 300 301 299 297 298 296 295 297 299 297 295 292 288 284 281 279 277 275 273 271 268 264 262 265 264 261 258 254 253 252 251 250 251 254 257 259 259 257 256 255 263 269
280 287 293 296 300 303 303 300 299 300 299 297 294 292 290 287 285 283 280 277 275 273 271 268 266 262 259 259 261 257 250 245 249 251 251 250 254 251 255 259 260 260 258 261 267
282 292 296 297 298 300 301 301 301 300 300 299 298 296 293 289 285 280 277 273 270 268 265 264 262 260 256 255 254 255 256 247 243 244 249 250 249 250 252 253 256 260 261 260 264
285 292 295 297 300 301 302 302 301 301 298 298 296 293 288 285 284 283 283 280 277 271 270 269 267 265 257 257 253 251 251 252 249 242 243 242 245 246 249 250 254 257 259 258 260
Height
5862 5862 5863 5864 5865 5866 5866 5867 5868 5869 5870 5871 5872 5872 5872 5873 5873 5873 5874 5876 5876 5878 5878 5878 5879 5882 5884 5887 5891 5895 5899 5898 5899 5901 5901 5899 5901 5904 5904 5905 5906 5908 5906 5905 5903
5859 5859 5860 5861 5863 5864 5865 5865 5866 5867 5868 5869 5870 5871 5871 5871 5872 5873 5873 5872 5875 5876 5877 5877 5879 5881 5883 5886 5890 5893 5896 5896 5897 5898 5899 5898 5898 5901 5903 5904 5905 5907 5907 5906 5906
5856 5857 5857 5858 5860 5861 5862 5863 5864 5865 5866 5867 5868 5869 5869 5869 5870 5870 5870 5871 5873 5874 5876 5877 5878 5880 5882 5885 5889 5892 5893 5895 5895 5896 5896 5895 5896 5898 5901 5903 5904 5907 5909 5908 5909
5854 5854 5855 5856 5857 5858 5859 5860 5861 5862 5862 5864 5866 5866 5867 5867 5869 5869 5869 5870 5871 5872 5874 5876 5877 5878 5880 5883 5886 5889 5890 5893 5893 5891 5892 5892 5893 5894 5897 5900 5900 5901 5904 5907 5908
5852 5852 5853 5854 5854 5855 5856 5857 5858 5859 5860 5861 5863 5863 5864 5865 5866 5866 5868 5868 5869 5870 5872 5874 5876 5877 5878 5880 5882 5885 5889 5890 5888 5890 5889 5890 5891 5892 5893 5894 5894 5895 5897 5901 5905
5849 5850 5850 5851 5852 5852 5853 5853 5854 5855 5856 5858 5859 5860 5861 5862 5863 5864 5865 5866 5867 5868 5870 5871 5872 5874 5875 5877 5879 5883 5882 5884 5885 5889 5890 5887 5889 5889 5890 5892 5891 5891 5890 5893 5903
5847 5847 5848 5848 5848 5849 5850 5851 5851 5852 5853 5854 5855 5856 5857 5861 5860 5861 5862 5863 5864 5866 5866 5867 5870 5872 5874 5875 5878 5877 5878 5880 5884 5886 5887 5888 5886 5889 5888 5887 5888 5888 5888 5889 5894
5844 5845 5845 5845 5846 5846 5846 5847 5848 5849 5850 5851 5851 5852 5855 5856 5854 5857 5859 5860 5861 5862 5863 5865 5867 5869 5872 5874 5877 5877 5877 5878 5883 5883 5884 5885 5889 5892 5887 5884 5884 5884 5885 5889 5891
5842 5842 5842 5842 5843 5842 5843 5844 5845 5845 5846 5847 5847 5848 5851 5851 5852 5855 5855 5856 5857 5858 5859 5861 5864 5866 5868 5870 5873 5875 5878 5879 5881 5880 5880 5880 5883 5890 5881 5879 5879 5882 5883 5886 5888
5839 5840 5839 5839 5839 5840 5841 5841 5842 5843 5843 5843 5844 5846 5848 5849 5849 5850 5852 5852 5853 5854 5856 5858 5860 5862 5864 5865 5868 5869 5871 5873 5876 5877 5873 5874 5875 5877 5876 5875 5875 5877 5878 5881 5884
5838 5838 5838 5837 5838 5838 5839 5839 5841 5841 5840 5841 5841 5841 5841 5844 5845 5845 5846 5849 5849 5850 5851 5853 5857 5860 5857 5857 5858 5859 5862 5863 5868 5866 5866 5868 5870 5869 5870 5867 5870 5873 5874 5876 5878
5836 5836 5836 5836 5837 5836 5836 5837 5837 5838 5838 5838 5838 5836 5839 5839 5840 5841 5841 5843 5844 5845 5845 5849 5852 5849 5848 5851 5853 5853 5855 5859 5861 5862 5859 5861 5861 5864 5863 5861 5863 5867 5869 5871 5872
5835 5835 5835 5834 5834 5834 5834 5835 5835 5835 5835 5835 5834 5834 5836 5837 5835 5834 5836 5836 5837 5838 5839 5841 5845 5842 5844 5844 5847 5848 5849 5856 5857 5855 5851 5853 5854 5857 5858 5859 5857 5860 5865 5866 5868
5833 5833 5832 5832 5833 5831 5831 5832 5832 5832 5832 5831 5830 5831 5831 5832 5831 5831 5830 5831 5833 5833 5831 5837 5838 5837 5836 5838 5840 5841 5846 5847 5848 5847 5845 5845 5844 5849 5851 5851 5853 5856 5860 5862 5864
5830 5830 5829 5829 5828 5828 5828 5827 5827 5827 5827 5827 5827 5827 5827 5827 5825 5825 5826 5826 5827 5825 5826 5833 5831 5828 5828 5835 5830 5836 5836 5834 5835 5835 5836 5838 5835 5843 5844 5844 5847 5849 5853 5855 5857
5827 5826 5826 5825 5824 5824 5823 5823 5822 5823 5822 5822 5823 5823 5823 5821 5818 5819 5820 5820 5818 5817 5816 5825 5824 5823 5826 5827 5825 5829 5830 5828 5828 5827 5824 5830 5830 5831 5837 5840 5841 5843 5845 5848 5850
5822 5822 5821 5821 5821 5820 5819 5819 5819 5817 5819 5819 5819 5818 5818 5818 5815 5813 5812 5811 5811 5811 5812 5814 5816 5816 5816 5818 5820 5819 5822 5821 5819 5818 5815 5825 5821 5821 5832 5834 5836 5837 5838 5839 5840
5818 5817 5817 5817 5816 5815 5816 5816 5815 5815 5813 5813 5813 5811 5810 5810 5809 5808 5806 5804 5803 5802 5804 5805 5811 5812 5811 5809 5812 5812 5812 5811 5807 5811 5811 5813 5805 5813 5825 5829 5828 5829 5830 5830 5831
5813 5814 5813 5813 5813 5812 5812 5812 5810 5810 5809 5807 5805 5804 5805 5804 5802 5800 5799 5797 5795 5794 5796 5794 5796 5806 5805 5804 5802 5806 5801 5804 5798 5798 5796 5797 5801 5805 5813 5815 5818 5820 5821 5822 5824
5809 5809 5809 5809 5808 5807 5807 5807 5806 5804 5803 5802 5801 5800 5798 5798 5795 5794 5790 5789 5788 5786 5785 5783 5781 5792 5795 5794 5795 5792 5798 5793 5789 5786 5784 5782 5786 5792 5801 5807 5810 5811 5811 5814 5815
5807 5805 5806 5805 5804 5803 5801 5802 5801 5799 5798 5797 5796 5794 5793 5791 5789 5788 5783 5781 5780 5778 5775 5772 5768 5776 5780 5784 5785 5785 5780 5781 5780 5777 5771 5771 5773 5782 5786 5792 5798 5801 5801 5801 5803
5803 5802 5802 5800 5800 5798 5796 5795 5796 5793 5792 5789 5788 5785 5784 5783 5779 5777 5776 5772 5770 5769 5767 5763 5758 5753 5762 5769 5771 5769 5767 5766 5764 5764 5764 5762 5760 5770 5774 5779 5783 5789 5790 5791 5794
5798 5798 5796 5795 5794 5792 5790 5789 5787 5786 5783 5780 5778 5776 5772 5770 5767 5763 5760 5758 5757 5754 5752 5753 5749 5743 5744 5751 5752 5752 5749 5748 5749 5749 5753 5751 5753 5761 5761 5767 5770 5774 5776 5779 5782
5795 5794 5792 5790 5788 5786 5784 5782 5779 5776 5774 5771 5766 5763 5760 5756 5752 5747 5744 5740 5737 5733 5732 5731 5733 5730 5726 5728 5728 5728 5730 5730 5730 5732 5732 5737 5742 5748 5746 5750 5754 5759 5764 5767 5767
5790 5789 5787 5785 5781 5778 5776 5773 5769 5765 5761 5757 5754 5749 5744 5740 5735 5730 5726 5720 5718 5711 5709 5706 5707 5705 5706 5706 5701 5703 5709 5710 5709 5712 5713 5727 5724 5733 5734 5735 5740 5745 5751 5757 5759
5785 5783 5780 5778 5775 5772 5768 5763 5757 5753 5750 5743 5736 5731 5725 5719 5713 5707 5700 5692 5692 5686 5680 5676 5674 5672 5680 5680 5675 5678 5678 5689 5694 5696 5696 5705 5709 5715 5718 5724 5728 5733 5736 5742 5747
5779 5776 5773 5769 5765 5761 5757 5751 5745 5739 5735 5728 5721 5714 5705 5698 5691 5682 5673 5667 5659 5659 5654 5650 5645 5640 5651 5642 5644 5651 5654 5659 5664 5672 5675 5681 5692 5699 5703 5709 5714 5719 5723 5729 5735